{"data":{"norad_id":27057,"intl_designator":"2001-058C","name":"COSMOS 2386","alt_names":[],"object_type":"PAYLOAD","status":"ACTIVE","operator":null,"country":"CIS","launch_date":"2001-12-28","launch_site_code":"PLMSC","launch_vehicle":null,"mission":null,"orbit_class":"UNKNOWN","rcs_meters":0.9025,"size_class":null,"mass_kg":null,"dimensions":null,"purposes":[],"wikipedia_slug":null,"has_3d_model":false,"image_url":null,"decayed_at":null,"tle_current":{"epoch":"2026-05-25T04:07:40.278144Z","epoch_age_seconds":53573,"freshness":"FRESH","line1":"1 27057U 01058C   26145.17199396  .00000009  00000+0 -86551-5 0  9997","line2":"2 27057  82.5453 228.8955 0001585 109.9953 250.1309 12.61616273123601","mean_motion":12.61616273,"eccentricity":0.0001585,"inclination_deg":82.5453,"raan_deg":228.8955,"arg_perigee_deg":109.9953,"mean_anomaly_deg":250.1309,"bstar":-8.6551e-6,"rev_number":12360,"period_min":114.13930137219,"perigee_km":1415.0448806943,"apogee_km":1417.5157109771,"semimajor_km":7794.4172958357,"source":"CELESTRAK","updated_at":"2026-05-25T13:37:55.027615Z"}}}